Tiempo cada hora Dalabuszki

Hoy, 29 Noviembre, Domingo

Tiempo Temperatura Precipitaciones Viento Presión Humedad
00:00 0°C° 0.1 mm 4 mps 758 mmHg 86%
01:00 0°C° 0 mm 4 mps 758 mmHg 93%
02:00 0°C° 0.3 mm 4 mps 758 mmHg 94%
03:00 0°C° 0.3 mm 4 mps 758 mmHg 94%
04:00 +1°C° 0.3 mm 3 mps 758 mmHg 95%
05:00 +1°C° 0.3 mm 3 mps 758 mmHg 95%
06:00 +1°C° 0.3 mm 3 mps 758 mmHg 95%
07:00 +1°C° 0 mm 3 mps 758 mmHg 96%
08:00 +1°C° 0.4 mm 3 mps 758 mmHg 94%
09:00 +1°C° 0.4 mm 3 mps 758 mmHg 93%
10:00 +1°C° 0.4 mm 3 mps 758 mmHg 92%
11:00 +1°C° 0 mm 3 mps 758 mmHg 87%
12:00 +1°C° 0 mm 3 mps 758 mmHg 82%
13:00 +2°C° 0 mm 3 mps 758 mmHg 76%
14:00 +2°C° 0 mm 2 mps 758 mmHg 79%
15:00 +2°C° 0 mm 2 mps 758 mmHg 81%
16:00 +1°C° 0 mm 2 mps 758 mmHg 83%
17:00 +1°C° 0 mm 2 mps 758 mmHg 84%
18:00 -1°C° 0 mm 2 mps 758 mmHg 84%
19:00 -1°C° 0 mm 2 mps 759 mmHg 85%
20:00 +1°C° 0 mm 1 mps 759 mmHg 83%
21:00 +1°C° 0 mm 1 mps 759 mmHg 81%
22:00 +1°C° 0 mm 1 mps 759 mmHg 80%
23:00 0°C° 0 mm 1 mps 759 mmHg 82%

Mañana, 30 Noviembre, Lunes

Tiempo Temperatura Precipitaciones Viento Presión Humedad
00:00 0°C° 0 mm 1 mps 759 mmHg 84%
01:00 0°C° 0 mm 1 mps 759 mmHg 86%
02:00 0°C° 0 mm 1 mps 759 mmHg 87%
03:00 0°C° 0 mm 1 mps 759 mmHg 89%
04:00 +1°C° 0 mm 1 mps 759 mmHg 90%
05:00 +1°C° 0 mm 1 mps 759 mmHg 91%
06:00 +1°C° 0 mm 1 mps 759 mmHg 91%
07:00 +1°C° 0 mm 2 mps 760 mmHg 92%
08:00 +1°C° 0 mm 2 mps 760 mmHg 92%
09:00 +1°C° 0 mm 2 mps 760 mmHg 92%
10:00 +1°C° 0 mm 2 mps 760 mmHg 92%
11:00 +2°C° 0.1 mm 2 mps 760 mmHg 92%
12:00 +1°C° 0.1 mm 3 mps 760 mmHg 92%
13:00 +1°C° 0.1 mm 3 mps 760 mmHg 92%
14:00 0°C° 0 mm 3 mps 759 mmHg 90%
15:00 +1°C° 0 mm 2 mps 759 mmHg 89%
16:00 +1°C° 0 mm 2 mps 759 mmHg 88%
17:00 +1°C° 0 mm 2 mps 759 mmHg 86%
18:00 +1°C° 0 mm 2 mps 759 mmHg 84%
19:00 +1°C° 0 mm 2 mps 759 mmHg 82%
20:00 +1°C° 0 mm 2 mps 759 mmHg 81%
21:00 0°C° 0 mm 3 mps 759 mmHg 81%
22:00 0°C° 0 mm 3 mps 758 mmHg 80%
23:00 0°C° 0 mm 3 mps 758 mmHg 83%

Pasado mañana, 1 Diciembre, Martes

Tiempo Temperatura Precipitaciones Viento Presión Humedad
00:00 -1°C° 0 mm 3 mps 757 mmHg 85%
01:00 -1°C° 0 mm 3 mps 757 mmHg 87%
02:00 -2°C° 0 mm 3 mps 757 mmHg 87%
03:00 -2°C° 0 mm 3 mps 756 mmHg 87%
04:00 -2°C° 0 mm 3 mps 756 mmHg 87%
05:00 -3°C° 0 mm 4 mps 756 mmHg 86%
06:00 -3°C° 0 mm 4 mps 756 mmHg 85%
07:00 -3°C° 0 mm 4 mps 756 mmHg 84%
08:00 -2°C° 0 mm 4 mps 756 mmHg 80%
09:00 -2°C° 0 mm 4 mps 756 mmHg 77%
10:00 -1°C° 0 mm 4 mps 756 mmHg 74%
11:00 -1°C° 0 mm 4 mps 756 mmHg 71%
12:00 0°C° 0 mm 4 mps 756 mmHg 69%
13:00 +1°C° 0 mm 4 mps 756 mmHg 66%
14:00 +1°C° 0 mm 3 mps 756 mmHg 70%
15:00 0°C° 0 mm 3 mps 756 mmHg 75%
16:00 -1°C° 0 mm 3 mps 756 mmHg 79%
17:00 -1°C° 0 mm 3 mps 757 mmHg 80%
18:00 -2°C° 0 mm 3 mps 757 mmHg 81%
19:00 -2°C° 0 mm 3 mps 758 mmHg 83%
20:00 -2°C° 0 mm 3 mps 758 mmHg 83%
21:00 -2°C° 0 mm 2 mps 758 mmHg 84%
22:00 -3°C° 0 mm 2 mps 758 mmHg 85%
23:00 -3°C° 0 mm 2 mps 758 mmHg 85%

2 Diciembre, Miércoles

Tiempo Temperatura Precipitaciones Viento Presión Humedad
00:00 -3°C° 0 mm 2 mps 758 mmHg 85%
01:00 -3°C° 0 mm 2 mps 758 mmHg 85%
02:00 -3°C° 0 mm 2 mps 758 mmHg 85%
03:00 -3°C° 0 mm 2 mps 758 mmHg 85%
04:00 -3°C° 0 mm 2 mps 758 mmHg 85%
05:00 -3°C° 0 mm 2 mps 758 mmHg 85%
06:00 -3°C° 0 mm 2 mps 758 mmHg 85%
07:00 -3°C° 0 mm 2 mps 758 mmHg 84%
08:00 -3°C° 0 mm 2 mps 758 mmHg 80%
09:00 -2°C° 0 mm 3 mps 758 mmHg 76%
10:00 -1°C° 0 mm 3 mps 758 mmHg 72%
11:00 -1°C° 0 mm 3 mps 757 mmHg 70%
12:00 0°C° 0 mm 3 mps 757 mmHg 67%
13:00 0°C° 0 mm 3 mps 757 mmHg 64%
14:00 -1°C° 0 mm 3 mps 756 mmHg 69%
15:00 -2°C° 0 mm 3 mps 756 mmHg 73%
16:00 -4°C° 0 mm 3 mps 755 mmHg 77%
17:00 -4°C° 0 mm 3 mps 755 mmHg 79%
18:00 -4°C° 0 mm 3 mps 755 mmHg 80%
19:00 -4°C° 0 mm 3 mps 755 mmHg 81%
20:00 -4°C° 0 mm 3 mps 755 mmHg 81%
21:00 -4°C° 0 mm 3 mps 755 mmHg 81%
22:00 -5°C° 0 mm 3 mps 755 mmHg 81%
23:00 -4°C° 0 mm 3 mps 754 mmHg 80%

3 Diciembre, Jueves

Tiempo Temperatura Precipitaciones Viento Presión Humedad
00:00 -4°C° 0 mm 3 mps 754 mmHg 80%
01:00 -4°C° 0 mm 3 mps 754 mmHg 79%
02:00 -4°C° 0 mm 3 mps 753 mmHg 78%
03:00 -4°C° 0 mm 3 mps 753 mmHg 77%
04:00 -4°C° 0 mm 3 mps 753 mmHg 76%
05:00 -5°C° 0 mm 3 mps 753 mmHg 75%
06:00 -5°C° 0 mm 3 mps 752 mmHg 74%
07:00 -5°C° 0 mm 3 mps 752 mmHg 73%
08:00 -4°C° 0 mm 3 mps 752 mmHg 69%
09:00 -2°C° 0 mm 3 mps 752 mmHg 64%
10:00 -2°C° 0 mm 4 mps 752 mmHg 59%
11:00 0°C° 0 mm 3 mps 751 mmHg 57%
12:00 0°C° 0 mm 3 mps 751 mmHg 55%
13:00 +1°C° 0 mm 3 mps 750 mmHg 53%
14:00 0°C° 0 mm 3 mps 750 mmHg 57%
15:00 -1°C° 0 mm 3 mps 750 mmHg 61%
16:00 -1°C° 0 mm 3 mps 749 mmHg 65%
17:00 -2°C° 0.4 mm 3 mps 749 mmHg 73%
18:00 -3°C° 0.4 mm 4 mps 749 mmHg 82%
19:00 -3°C° 0.4 mm 4 mps 749 mmHg 91%
20:00 -2°C° 0.9 mm 4 mps 749 mmHg 88%
21:00 -2°C° 0.9 mm 5 mps 748 mmHg 86%
22:00 -2°C° 0.9 mm 5 mps 748 mmHg 84%
23:00 -2°C° 0 mm 5 mps 747 mmHg 81%

4 Diciembre, Viernes

Tiempo Temperatura Precipitaciones Viento Presión Humedad
00:00 -2°C° 0 mm 4 mps 747 mmHg 78%
01:00 -2°C° 0 mm 4 mps 747 mmHg 75%
02:00 -2°C° 0 mm 4 mps 746 mmHg 76%
03:00 -2°C° 0 mm 4 mps 746 mmHg 77%
04:00 -2°C° 0 mm 4 mps 745 mmHg 78%
05:00 -2°C° 0 mm 4 mps 745 mmHg 79%
06:00 -2°C° 0 mm 4 mps 745 mmHg 80%
07:00 -2°C° 0 mm 4 mps 745 mmHg 80%
08:00 -1°C° 0 mm 4 mps 745 mmHg 80%
09:00 0°C° 0 mm 5 mps 745 mmHg 79%
10:00 +1°C° 0 mm 5 mps 745 mmHg 78%
11:00 +2°C° 0 mm 5 mps 745 mmHg 76%
12:00 +3°C° 0 mm 6 mps 744 mmHg 75%
13:00 +4°C° 0 mm 6 mps 744 mmHg 73%
14:00 +3°C° 0 mm 6 mps 744 mmHg 74%
15:00 +2°C° 0 mm 6 mps 744 mmHg 75%
16:00 +1°C° 0 mm 6 mps 744 mmHg 77%
17:00 +1°C° 0 mm 6 mps 744 mmHg 77%
18:00 -1°C° 0 mm 6 mps 744 mmHg 78%
19:00 -1°C° 0 mm 6 mps 744 mmHg 79%
20:00 -1°C° 0 mm 6 mps 744 mmHg 80%
21:00 0°C° 0 mm 5 mps 744 mmHg 80%
22:00 +1°C° 0 mm 5 mps 744 mmHg 81%
23:00 +1°C° 0 mm 6 mps 743 mmHg 82%
Mostrar más

Necesitamos Su Consentimiento

Meteoprog y nuestros Proveedores de Servicios pueden almacenar y acceder a sus datos personales como cookies, identificadores de dispositivo u otras tecnologías similares de su dispositivo y procesar dichos datos para personalizar contenido y anuncios, además de ofrecer funciones de redes sociales y analizar el tráfico.

  • Almacenar y/o acceder a información en su dispositivo

    Se puede almacenar o acceder a cookies, identificadores de dispositivo u otra información de su dispositivo para los fines anteriormente indicados.

  • Anuncios y contenido personalizados, medición de anuncios y contenido, percepciones del público, y desarrollo de productos

    Los anuncios y el contenido pueden personalizarse en base a su perfil. Se pueden añadir más datos para personalizar mejor los anuncios y contenidos. Se puede medir el rendimiento de los anuncios y contenidos. Se puede obtener la percepción sobre el público que ha visto los anuncios y contenidos. Dichos datos pueden usarse para desarrollar o mejorar la experiencia del usuario, sistemas y software.

Al hacer clic en ‘Estoy De Acuerdo’ usted permitirá el uso de las cookies, identificadores de dispositivo, balizas web u otras tecnologías similares indicadas. Su configuración puede cambiarse desde el navegador de su dispositivo.

Para ciertos fines, los intereses legítimos pueden ser considerados por encima del consentimiento. Puede leer más sobre ello en nuestra Política de Privacidad y Cookies.